This demonstration page uses our WeatherBlox Daily Observations layout. Learn more.

Left ArrowRight Arrow

Hourly Observations for August 4, 2019

Temp ( °F °C ) Dew Point ( °F °C ) Humidity (%) Winds ( mph kmh ) Pressure ( in mb ) Visibility ( mi km ) Precip ( " mm )
12:15 am 00:15 Clear 62 16.6 62 16.6 100 100 Calm 30.05 1018 10 16 0.00 0.00
12:35 am 00:35 Clear 62 16.6 62 16.6 100 100 Calm 30.05 1018 10 16 0.00 0.00
12:55 am 00:55 Clear 61 16.1 61 16.1 100 100 Calm 30.05 1018 10 16 0.00 0.00
1:15 am 01:15 Clear 61 16 61 16 100 100 Calm 30.05 1018 10 16 0.00 0.00
1:35 am 01:35 Clear 60 15.8 60 15.8 100 100 Calm 30.05 1018 10 16 0.00 0.00
1:55 am 01:55 Clear 61 16.2 61 16.2 100 100 Calm 30.06 1018 10 16 0.00 0.00
2:15 am 02:15 Clear 60 15.6 60 15.6 100 100 Calm 30.05 1018 10 16 0.00 0.00
2:35 am 02:35 Clear 60 15.3 60 15.3 100 100 Calm 30.05 1018 10 16 0.00 0.00
2:55 am 02:55 Clear 58 14.5 58 14.5 100 100 S 3 6 30.06 1018 10 16 0.00 0.00
3:15 am 03:15 Clear 58 14.6 58 14.6 100 100 Calm 30.05 1018 10 16 0.00 0.00
3:35 am 03:35 Clear 58 14.7 58 14.7 100 100 Calm 30.05 1018 10 16 0.00 0.00
3:55 am 03:55 Clear 58 14.6 58 14.6 100 100 N 3 6 30.05 1018 10 16 0.00 0.00
4:15 am 04:15 Clear 59 15 59 15 100 100 Calm 30.05 1018 10 16 0.00 0.00
4:35 am 04:35 Clear 58 14.7 58 14.7 100 100 Calm 30.05 1018 10 16 0.00 0.00
4:55 am 04:55 Clear 58 14.3 58 14.3 100 100 Calm 30.06 1018 10 16 0.00 0.00
5:15 am 05:15 Clear 58 14.5 58 14.5 100 100 Calm 30.06 1018 10 16 0.00 0.00
5:35 am 05:35 Clear 58 14.2 58 14.2 100 100 Calm 30.06 1018 10 16 0.00 0.00
5:55 am 05:55 Clear 57 14 57 14 100 100 Calm 30.06 1018 10 16 0.00 0.00
6:15 am 06:15 Clear 57 13.8 57 13.8 100 100 Calm 30.06 1018 10 16 0.00 0.00
6:35 am 06:35 Clear 56 13.2 56 13.2 100 100 Calm 30.06 1018 10 16 0.00 0.00
6:55 am 06:55 Sunny 56 13.2 56 13.2 100 100 Calm 30.07 1018 10 16 0.00 0.00
7:15 am 07:15 Sunny 57 13.7 57 13.7 100 100 Calm 30.07 1018 10 16 0.00 0.00
7:35 am 07:35 Sunny 58 14.6 58 14.6 100 100 Calm 30.07 1018 10 16 0.00 0.00
7:55 am 07:55 Sunny 61 15.9 61 15.9 100 100 Calm 30.07 1018 10 16 0.00 0.00
8:15 am 08:15 Sunny 64 17.6 62 16.6 94 94 Calm 30.07 1018 10 16 0.00 0.00
8:35 am 08:35 Sunny 66 18.8 62 16.5 87 87 Calm 30.07 1018 10 16 0.00 0.00
8:55 am 08:55 Sunny 68 19.9 62 16.9 83 83 Calm 30.07 1018 10 16 0.00 0.00
9:15 am 09:15 Sunny 70 21.3 62 16.7 75 75 Calm 30.06 1018 10 16 0.00 0.00
9:35 am 09:35 Sunny 71 21.8 61 16.1 70 70 Calm 30.06 1018 10 16 0.00 0.00
9:55 am 09:55 Sunny 73 22.8 62 16.8 69 69 Calm 30.06 1018 10 16 0.00 0.00
10:15 am 10:15 Sunny 75 23.7 60 15.4 60 60 Calm 30.05 1018 10 16 0.00 0.00
10:35 am 10:35 Sunny 75 24.1 60 15.3 58 58 Calm 30.05 1018 10 16 0.00 0.00
10:55 am 10:55 Sunny 77 25.2 60 15.8 56 56 Calm 30.05 1018 10 16 0.00 0.00
11:15 am 11:15 Sunny 78 25.4 58 14.5 51 51 Calm 30.05 1018 10 16 0.00 0.00
11:35 am 11:35 Sunny 79 26.3 60 15.3 51 51 ESE 3 6 30.05 1017 10 16 0.00 0.00
11:55 am 11:55 Sunny 79 26 57 14 48 48 Calm 30.05 1017 10 16 0.00 0.00
12:15 pm 12:15 Sunny 79 26.3 57 13.7 46 46 N 3 6 30.04 1017 10 16 0.00 0.00
12:35 pm 12:35 Sunny 80 26.6 56 13.6 45 45 NNE 3 6 30.03 1017 10 16 0.00 0.00
12:55 pm 12:55 Sunny 80 26.6 55 12.8 42 42 Calm 30.02 1017 10 16 0.00 0.00
1:15 pm 13:15 Sunny 81 27 57 13.8 44 44 Calm 30.02 1017 10 16 0.00 0.00
1:35 pm 13:35 Sunny 82 27.5 57 13.8 43 43 Calm 30.02 1017 10 16 0.00 0.00
1:55 pm 13:55 Sunny 82 27.5 56 13.5 42 42 Calm 30.01 1016 10 16 0.00 0.00
2:15 pm 14:15 Sunny 82 27.8 55 13 40 40 Calm 30.01 1016 10 16 0.00 0.00
2:35 pm 14:35 Sunny 83 28.2 54 12.1 37 37 NW 3 6 30.00 1016 10 16 0.00 0.00
2:55 pm 14:55 Sunny 83 28.4 56 13.4 40 40 NW 3 6 30.00 1016 10 16 0.00 0.00
3:15 pm 15:15 Sunny 84 29.1 57 14.1 40 40 N 6 9 30.00 1016 10 16 0.00 0.00
3:35 pm 15:35 Sunny 83 28.5 55 12.7 38 38 NE 7 11 29.99 1016 10 16 0.00 0.00
3:55 pm 15:55 Sunny 83 28.6 55 12.8 38 38 N 6 9 29.98 1015 10 16 0.00 0.00
4:15 pm 16:15 Sunny 83 28.3 54 12 36 36 NE 5 7 29.98 1015 10 16 0.00 0.00
4:35 pm 16:35 Sunny 83 28.3 57 13.7 41 41 N 5 7 29.97 1015 10 16 0.00 0.00
4:55 pm 16:55 Sunny 83 28.6 57 14 41 41 N 3 6 29.97 1015 10 16 0.00 0.00
5:15 pm 17:15 Sunny 83 28.4 59 14.8 43 43 NNE 3 6 29.97 1015 10 16 0.00 0.00
5:35 pm 17:35 Sunny 83 28.2 59 15 45 45 N 3 6 29.97 1015 10 16 0.00 0.00
5:55 pm 17:55 Sunny 83 28.1 60 15.3 46 46 NE 6 9 29.97 1015 10 16 0.00 0.00
6:15 pm 18:15 Sunny 82 28 59 15.1 45 45 N 5 7 29.96 1015 10 16 0.00 0.00
6:35 pm 18:35 Sunny 82 28 60 15.5 47 47 NNE 3 6 29.96 1015 10 16 0.00 0.00
6:55 pm 18:55 Sunny 82 27.6 60 15.7 48 48 Calm 29.96 1015 10 16 0.00 0.00
7:15 pm 19:15 Sunny 82 27.5 62 16.8 52 52 N 6 9 29.96 1015 10 16 0.00 0.00
7:35 pm 19:35 Sunny 81 27.1 62 16.7 53 53 N 5 7 29.97 1015 10 16 0.00 0.00
7:55 pm 19:55 Sunny 80 26.7 62 16.7 54 54 N 5 7 29.97 1015 10 16 0.00 0.00
8:15 pm 20:15 Sunny 78 25.6 64 18 63 63 N 5 7 29.97 1015 10 16 0.00 0.00
8:35 pm 20:35 Sunny 76 24.7 66 18.7 69 69 Calm 29.97 1015 10 16 0.00 0.00
8:55 pm 20:55 Sunny 75 24.1 66 19.1 74 74 Calm 29.97 1015 10 16 0.00 0.00
9:15 pm 21:15 Clear 73 22.6 67 19.7 84 84 Calm 29.98 1015 10 16 0.00 0.00
9:35 pm 21:35 Clear 71 21.5 67 19.6 89 89 Calm 29.99 1016 10 16 0.00 0.00
9:55 pm 21:55 Clear 71 21.5 67 19.5 88 88 Calm 29.99 1016 10 16 0.00 0.00
10:15 pm 22:15 Clear 69 20.8 68 20 95 95 Calm 29.99 1016 10 16 0.00 0.00
10:35 pm 22:35 Clear 68 19.8 67 19.6 99 99 Calm 30.00 1016 10 16 0.00 0.00
10:55 pm 22:55 Clear 67 19.6 67 19.6 100 100 Calm 30.00 1016 10 16 0.00 0.00
11:15 pm 23:15 Clear 67 19.7 67 19.5 99 99 Calm 30.01 1016 10 16 0.00 0.00
11:35 pm 23:35 Clear 68 19.8 67 19.6 99 99 Calm 30.01 1016 10 16 0.00 0.00
11:55 pm 23:55 Clear 66 19 66 19 100 100 Calm 30.01 1016 10 16 0.00 0.00

Powered by AerisWeather